Location: Spangle
(47.4302°N, 117.3779°W)
Time: 14:01:16
(UTC+00:00)

Envisat - Pass Details

Date: 22 April 2026
Orbit: 761 x 762 km, 98.4° (Epoch: 15 May)

Event Time Altitude Azimuth Distance (km) Brightness Sun altitude
Rises 11:51:35 0° 3° (N) 3,236 6.7 -9.5°
Reaches altitude 10° 11:54:18 10° 349° (N) 2,305 5.7 -9.1°
Maximum altitude 11:58:12 23° 299° (WNW) 1,586 4.4 -8.5°
Drops below altitude 10° 12:02:05 10° 248° (WSW) 2,293 4.8 -7.9°
Enters shadow 12:02:12 10° 248° (WSW) 2,327 4.8 -7.9°
